Content
SEND FEEDBACK

United States of America Flag

BROOKLINE, MASSACHUSETTS


Home > North America > United States > Massachusetts
Elevation: 36 meters     Latitude: 42 24N     Longitude: 071 06W

WEATHER
 
SELECT A DAY
Number of Records: 218,377;   Date Range: 1/1/95 - 3/21/16
 
SHARE

PRINT THIS DATA

[ ← Previous Day ]
WEATHER ALMANAC - 13 FEBRUARY, 2013
[ Next Day → ]
[ °F ]   °C
Weather ElementAverageHighLow
Temperature2.1 °C5 °C (2:54 pm)-0.6 °C (6:54 am)
Dewpoint-4.7 °C-1.7 °C (10:54 pm)-6.7 °C (6:54 am)
Humidity62 %82 % (10:54 pm)47 % (2:54 pm)
Barometer1009.1 hPa1011.5 hPa (6:54 am)1005.8 hPa (11:54 pm)
Wind Speed11.1 km/h20.4 km/h (3:54 am)
Wind Gust33.3 km/h (3:54 am)
Weather ElementAverage
Visibility16.1 km
Wind DirectionSSW (207 °)

Weather ElementTotal
Precipitation---
Heating Degree Days16.2 (Base 18.3)
Averaged from 23 records on 13 February, 2013
WEATHER CONDITIONS BREAKOUT
WIND DIRECTION BREAKOUT
WEATHER BY HOUR - 13 FEBRUARY, 2013
[ °F ]   °C
Local TimeTemperatureDewpointHumidityBarometerVisibilityWind DirectionWind SpeedGust SpeedPrecipitationEventsConditions
1:54 AM1.1 °C-5 °C64 %1010.2 hPa16.1 kmWest (280°)16.7 km/hPartly Cloudy
2:54 AM1.1 °C-6.1 °C59 %1010.2 hPa16.1 kmWest (270°)18.5 km/hClear
3:54 AM1.1 °C-6.1 °C59 %1010.8 hPa16.1 kmWest (260°)20.4 km/h33.3 km/hPartly Cloudy
4:54 AM1.1 °C-6.1 °C59 %1011.2 hPa16.1 kmWest (270°)20.4 km/h31.5 km/hPartly Cloudy
5:54 AM0.6 °C-6.1 °C61 %1011.2 hPa16.1 kmWest (270°)13 km/hPartly Cloudy
6:54 AM-0.6 °C-6.7 °C64 %1011.5 hPa16.1 kmWSW (240°)13 km/hPartly Cloudy
7:54 AM1.1 °C-5.6 °C61 %1011.5 hPa16.1 kmWest (280°)13 km/hClear
8:54 AM2.2 °C-5.6 °C57 %1011.5 hPa16.1 kmWest (270°)13 km/hClear
9:54 AM2.8 °C-5.6 °C54 %1011.2 hPa16.1 kmWNW (300°)11.1 km/h27.8 km/hPartly Cloudy
10:54 AM3.3 °C-5.6 °C53 %1010.5 hPa16.1 kmWest (270°)9.3 km/hPartly Cloudy
11:54 AM3.3 °C-5.6 °C53 %1010.2 hPa16.1 kmWSW (250°)9.3 km/hPartly Cloudy
12:54 PM4.4 °C-5 °C51 %1009.5 hPa16.1 kmVariable9.3 km/hScattered Clouds
1:54 PM4.4 °C-5 °C51 %1009.1 hPa16.1 kmWest (270°)11.1 km/hMostly Cloudy
2:54 PM5 °C-5.6 °C47 %1008.5 hPa16.1 kmWest (270°)9.3 km/hScattered Clouds
3:54 PM5 °C-5.6 °C47 %1007.8 hPa16.1 kmWNW (290°)5.6 km/hScattered Clouds
4:54 PM2.2 °C-3.9 °C64 %1008.1 hPa16.1 kmSE (130°)13 km/hScattered Clouds
5:54 PM1.7 °C-3.3 °C70 %1007.8 hPa16.1 kmSE (130°)13 km/hMostly Cloudy
6:54 PM1.7 °C-3.3 °C70 %1007.5 hPa16.1 kmSSE (150°)11.1 km/hOvercast
7:54 PM1.1 °C-3.3 °C73 %1007.5 hPa16.1 kmSSE (150°)5.6 km/hOvercast
8:54 PM0.6 °C-3.3 °C75 %1007.5 hPa16.1 kmNE (40°)5.6 km/hOvercast
9:54 PM1.1 °C-2.8 °C75 %1006.8 hPa16.1 kmCalmOvercast
10:54 PM1.1 °C-1.7 °C82 %1006.4 hPa16.1 kmNorth (10°)7.4 km/hOvercast
11:54 PM1.7 °C-2.2 °C76 %1005.8 hPa16.1 kmNorth (360°)5.6 km/hOvercast
Hourly data recorded from KBOS, located 0 kilometers away from Brookline, Massachusetts




STORIES FROM OUR PARTNERS